When you browse on this site, cookies collect data to enhance your experience and personalize the content and advertising you see.
Visit our Privacy Policy to learn more. By continuing to use the site, you agree to this use of cookies and data.
  • In Lithuania
  • List of Countries
  • For 7 days
  • Water Temperature
  • Weather Map
  • Weather Widgets
  • user-avatar
    Login

    Hourly Weather Igls

    Today, 30 May, Saturday

    Time Temperature Precipitation Wind Pressure Humidity
    00:00 +6°C° 0 mm 1 mps 686 mmHg 92%
    01:00 +5°C° 0 mm 1 mps 686 mmHg 93%
    02:00 +5°C° 0 mm 1 mps 686 mmHg 92%
    03:00 +5°C° 0 mm 1 mps 685 mmHg 92%
    04:00 +4°C° 0 mm 0 mps 685 mmHg 92%
    05:00 +7°C° 0 mm 1 mps 685 mmHg 85%
    06:00 +9°C° 0 mm 1 mps 686 mmHg 79%
    07:00 +11°C° 0 mm 1 mps 686 mmHg 73%
    08:00 +13°C° 0 mm 1 mps 686 mmHg 66%
    09:00 +14°C° 0 mm 2 mps 686 mmHg 58%
    10:00 +15°C° 0 mm 2 mps 685 mmHg 51%
    11:00 +16°C° 0 mm 2 mps 685 mmHg 51%
    12:00 +16°C° 0 mm 3 mps 685 mmHg 50%
    13:00 +16°C° 0 mm 3 mps 685 mmHg 50%
    14:00 +16°C° 0.1 mm 3 mps 685 mmHg 54%
    15:00 +14°C° 0.1 mm 3 mps 685 mmHg 58%
    16:00 +14°C° 0.1 mm 3 mps 684 mmHg 63%
    17:00 +14°C° 0.1 mm 2 mps 684 mmHg 71%
    18:00 +12°C° 0.1 mm 2 mps 684 mmHg 80%
    19:00 +10°C° 0.1 mm 2 mps 684 mmHg 88%
    20:00 +10°C° 0 mm 1 mps 684 mmHg 91%
    21:00 +9°C° 0 mm 1 mps 684 mmHg 94%
    22:00 +8°C° 0 mm 1 mps 685 mmHg 97%
    23:00 +7°C° 0 mm 1 mps 685 mmHg 97%

    Tomorrow, 31 May, Sunday

    Time Temperature Precipitation Wind Pressure Humidity
    00:00 +6°C° 0 mm 0 mps 685 mmHg 97%
    01:00 +6°C° 0 mm 0 mps 685 mmHg 96%
    02:00 +6°C° 0 mm 0 mps 685 mmHg 96%
    03:00 +6°C° 0 mm 0 mps 684 mmHg 95%
    04:00 +7°C° 0 mm 1 mps 684 mmHg 95%
    05:00 +8°C° 0 mm 1 mps 684 mmHg 91%
    06:00 +9°C° 0 mm 1 mps 685 mmHg 87%
    07:00 +10°C° 0 mm 1 mps 685 mmHg 83%
    08:00 +12°C° 0 mm 1 mps 685 mmHg 75%
    09:00 +13°C° 0 mm 1 mps 685 mmHg 67%
    10:00 +15°C° 0 mm 2 mps 685 mmHg 59%
    11:00 +15°C° 0 mm 2 mps 685 mmHg 56%
    12:00 +16°C° 0 mm 2 mps 685 mmHg 52%
    13:00 +17°C° 0 mm 3 mps 685 mmHg 48%
    14:00 +17°C° 0 mm 3 mps 685 mmHg 50%
    15:00 +16°C° 0 mm 3 mps 685 mmHg 51%
    16:00 +16°C° 0 mm 3 mps 685 mmHg 53%
    17:00 +14°C° 0 mm 3 mps 685 mmHg 59%
    18:00 +14°C° 0 mm 2 mps 685 mmHg 66%
    19:00 +13°C° 0 mm 2 mps 685 mmHg 72%
    20:00 +10°C° 0 mm 2 mps 685 mmHg 80%
    21:00 +9°C° 0 mm 1 mps 685 mmHg 87%
    22:00 +8°C° 0 mm 1 mps 685 mmHg 95%
    23:00 +7°C° 0 mm 1 mps 685 mmHg 94%

    Day after tomorrow, 1 June, Monday

    Time Temperature Precipitation Wind Pressure Humidity
    00:00 +7°C° 0 mm 1 mps 685 mmHg 94%
    01:00 +7°C° 0 mm 1 mps 685 mmHg 93%
    02:00 +6°C° 0 mm 1 mps 685 mmHg 93%
    03:00 +6°C° 0 mm 1 mps 685 mmHg 92%
    04:00 +6°C° 0 mm 1 mps 684 mmHg 92%
    05:00 +9°C° 0 mm 1 mps 685 mmHg 84%
    06:00 +11°C° 0 mm 1 mps 685 mmHg 76%
    07:00 +13°C° 0 mm 1 mps 686 mmHg 68%
    08:00 +15°C° 0 mm 1 mps 686 mmHg 61%
    09:00 +17°C° 0 mm 2 mps 686 mmHg 55%
    10:00 +19°C° 0 mm 2 mps 686 mmHg 48%
    11:00 +20°C° 0 mm 2 mps 686 mmHg 46%
    12:00 +20°C° 0 mm 2 mps 686 mmHg 43%
    13:00 +21°C° 0 mm 3 mps 686 mmHg 41%
    14:00 +21°C° 0 mm 3 mps 686 mmHg 43%
    15:00 +21°C° 0 mm 3 mps 686 mmHg 45%
    16:00 +21°C° 0 mm 3 mps 686 mmHg 48%
    17:00 +19°C° 0 mm 2 mps 686 mmHg 57%
    18:00 +18°C° 0 mm 2 mps 685 mmHg 66%
    19:00 +16°C° 0 mm 2 mps 685 mmHg 75%
    20:00 +14°C° 0 mm 1 mps 685 mmHg 82%
    21:00 +12°C° 0 mm 1 mps 685 mmHg 89%
    22:00 +10°C° 0 mm 1 mps 685 mmHg 96%
    23:00 +10°C° 0 mm 1 mps 685 mmHg 96%

    2 June, Tuesday

    Time Temperature Precipitation Wind Pressure Humidity
    00:00 +9°C° 0 mm 1 mps 685 mmHg 95%
    01:00 +8°C° 0 mm 0 mps 685 mmHg 95%
    02:00 +8°C° 0 mm 0 mps 685 mmHg 94%
    03:00 +7°C° 0 mm 0 mps 684 mmHg 93%
    04:00 +7°C° 0 mm 0 mps 684 mmHg 93%
    05:00 +10°C° 0 mm 0 mps 685 mmHg 85%
    06:00 +13°C° 0 mm 1 mps 685 mmHg 77%
    07:00 +15°C° 0 mm 1 mps 685 mmHg 69%
    08:00 +18°C° 0 mm 1 mps 685 mmHg 59%
    09:00 +20°C° 0 mm 1 mps 686 mmHg 49%
    10:00 +21°C° 0 mm 2 mps 686 mmHg 39%
    11:00 +21°C° 0 mm 2 mps 685 mmHg 37%
    12:00 +23°C° 0 mm 2 mps 685 mmHg 36%
    13:00 +24°C° 0 mm 3 mps 685 mmHg 34%
    14:00 +22°C° 0 mm 3 mps 685 mmHg 36%
    15:00 +22°C° 0 mm 3 mps 684 mmHg 39%
    16:00 +22°C° 0 mm 3 mps 684 mmHg 41%
    17:00 +20°C° 0 mm 2 mps 683 mmHg 51%
    18:00 +18°C° 0 mm 2 mps 683 mmHg 61%
    19:00 +16°C° 0 mm 1 mps 682 mmHg 71%
    20:00 +14°C° 0 mm 1 mps 682 mmHg 77%
    21:00 +12°C° 0 mm 1 mps 682 mmHg 83%
    22:00 +10°C° 0 mm 1 mps 681 mmHg 90%
    23:00 +10°C° 0 mm 1 mps 681 mmHg 90%

    3 June, Wednesday

    Time Temperature Precipitation Wind Pressure Humidity
    00:00 +10°C° 0 mm 1 mps 681 mmHg 90%
    01:00 +10°C° 0 mm 1 mps 680 mmHg 90%
    02:00 +10°C° 0 mm 1 mps 680 mmHg 91%
    03:00 +10°C° 0 mm 1 mps 680 mmHg 91%
    04:00 +11°C° 0 mm 1 mps 679 mmHg 92%
    05:00 +12°C° 0 mm 1 mps 680 mmHg 86%
    06:00 +14°C° 0 mm 1 mps 680 mmHg 80%
    07:00 +15°C° 0 mm 1 mps 680 mmHg 73%
    08:00 +18°C° 0 mm 1 mps 680 mmHg 67%
    09:00 +19°C° 0 mm 1 mps 680 mmHg 60%
    10:00 +20°C° 0 mm 2 mps 680 mmHg 54%
    11:00 +21°C° 0.1 mm 2 mps 680 mmHg 49%
    12:00 +21°C° 0.1 mm 2 mps 680 mmHg 45%
    13:00 +23°C° 0.1 mm 2 mps 680 mmHg 41%
    14:00 +21°C° 0.2 mm 2 mps 680 mmHg 43%
    15:00 +21°C° 0.2 mm 2 mps 680 mmHg 45%
    16:00 +21°C° 0.2 mm 2 mps 680 mmHg 47%
    17:00 +19°C° 0.2 mm 2 mps 680 mmHg 55%
    18:00 +18°C° 0.2 mm 2 mps 680 mmHg 63%
    19:00 +18°C° 0.2 mm 1 mps 680 mmHg 71%
    20:00 +14°C° 0 mm 1 mps 680 mmHg 78%
    21:00 +12°C° 0 mm 1 mps 680 mmHg 85%
    22:00 +9°C° 0 mm 0 mps 680 mmHg 92%
    23:00 +9°C° 0 mm 0 mps 679 mmHg 92%

    4 June, Thursday

    Time Temperature Precipitation Wind Pressure Humidity
    00:00 +9°C° 0 mm 0 mps 679 mmHg 92%
    01:00 +10°C° 0 mm 1 mps 679 mmHg 92%
    02:00 +9°C° 0 mm 1 mps 679 mmHg 92%
    03:00 +9°C° 0 mm 1 mps 679 mmHg 91%
    04:00 +9°C° 0 mm 1 mps 679 mmHg 91%
    05:00 +12°C° 0 mm 1 mps 680 mmHg 82%
    06:00 +13°C° 0 mm 0 mps 680 mmHg 74%
    07:00 +15°C° 0 mm 0 mps 681 mmHg 66%
    08:00 +19°C° 0 mm 1 mps 681 mmHg 56%
    09:00 +22°C° 0 mm 1 mps 682 mmHg 47%
    10:00 +24°C° 0 mm 1 mps 682 mmHg 38%
    11:00 +24°C° 0 mm 1 mps 682 mmHg 36%
    12:00 +25°C° 0 mm 2 mps 682 mmHg 34%
    13:00 +26°C° 0 mm 2 mps 682 mmHg 31%
    14:00 +25°C° 0 mm 2 mps 681 mmHg 33%
    15:00 +25°C° 0 mm 2 mps 681 mmHg 34%
    16:00 +25°C° 0 mm 2 mps 681 mmHg 36%
    17:00 +23°C° 0.1 mm 2 mps 681 mmHg 47%
    18:00 +22°C° 0.1 mm 1 mps 681 mmHg 59%
    19:00 +20°C° 0.1 mm 1 mps 680 mmHg 70%
    20:00 +18°C° 0 mm 1 mps 680 mmHg 75%
    21:00 +16°C° 0 mm 2 mps 680 mmHg 80%
    22:00 +14°C° 0 mm 2 mps 680 mmHg 85%
    23:00 +15°C° 0 mm 2 mps 680 mmHg 85%
    Show more